[[{"header":{"parameterUnit":"m.s-1","parameterCategory":1,"la1":30.2991,"la2":30.254,"lo1":-89.0895,"lo2":-89.0444,"dy":0.0017,"dx":0.0017,"nx":28,"ny":28,"refTime":"2025-03-21T21:00:00:Z","depth":0,"parameterNumber":2,"parameterNumberName":"U-component_of_WINDS"},"data":[0,0,0,0,0,0,0,0,0,0,0,0,0,0,0,0,0,0,0,0,0,0,0,0,0,0,0,0,0,0,0,0,0,0,0,0,0,0,0,0,0,0,0,0,0,0,0,0,0,0,0,0,0,0,0,0,0,0,0.2226,0.2227,0,0.2369,0.2371,0.2372,0.2445,0.2445,0.2445,0.2445,0.2591,0.2595,0.2598,0,0,0,0,0,0,0,0,0,0,0,0,0,0.2013,0.2016,0.2225,0.2227,0.2229,0.2369,0.2371,0.2373,0.2445,0.2445,0.2445,0.2445,0.259,0.2594,0.2599,0,0,0,0,0,0,0,0,0,0,0,0,0,0.2125,0.2017,0.2225,0.2282,0.2288,0.2368,0.2371,0.2373,0.2445,0.2445,0.2445,0.2445,0.2588,0.2594,0.2599,0.2633,0,0,0.2617,0.2619,0,0,0,0,0,0,0,0,0.2119,0.2133,0.2272,0.2278,0.2286,0.2389,0.2349,0.246,0.2445,0.2385,0.2445,0.2445,0.2524,0.2535,0.2561,0.264,0.2646,0.2617,0.2621,0.2623,0.2625,0,0,0,0,0,0,0,0.2111,0.2127,0.2282,0.2274,0.2282,0.23,0.2316,0.2371,0.2452,0.2391,0.2396,0.2412,0.2527,0.2556,0.2565,0.2648,0.2617,0.2622,0.2626,0.2628,0.2762,0.2762,0,0,0,0,0,0,0.2094,0.212,0.2278,0.2286,0.2201,0.2304,0.2322,0.2356,0.2452,0.2467,0.2412,0.2415,0.2546,0.2558,0.2571,0.2617,0.2623,0.2629,0.2632,0.2762,0.2762,0.2762,0,0,0,0,0,0,0.2089,0.2107,0.2272,0.2205,0.2227,0.2307,0.2345,0.2359,0.2387,0.2468,0.2483,0.2426,0.2546,0.2563,0.2617,0.2623,0.2631,0.2636,0.2762,0.2762,0.2762,0.2708,0,0,0,0,0,0,0.2083,0.2105,0.2119,0.2205,0.2231,0.2316,0.2345,0.2361,0.2397,0.2402,0.2485,0.2499,0.2548,0.2608,0.2623,0.2631,0.2641,0.2761,0.2762,0.2762,0.271,0.2707,0.2704,0,0,0,0,0,0.2075,0.2098,0.212,0.2138,0.225,0.2316,0.2331,0.2387,0.2397,0.2411,0.2464,0.2496,0.262,0.2613,0.263,0.264,0.2761,0.2762,0.2762,0.2711,0.2707,0.2704,0,0,0,0,0,0,0.2011,0.211,0.2135,0.2187,0.2243,0.2328,0.2348,0.2381,0.2434,0.2437,0.2504,0.2522,0.257,0.2611,0.2602,0.2678,0.2694,0.2697,0.265,0.2646,0.2643,0.2633,0.2646,0,0,0,0,0,0.2002,0.2049,0.2133,0.2171,0.2197,0.2268,0.2299,0.2337,0.2397,0.2421,0.2477,0.2534,0.2586,0.2618,0.267,0.2716,0.2735,0.2731,0.2728,0.2725,0.2728,0.2755,0.2754,0.2763,0.2763,0.2763,0,0,0.1986,0.2046,0.2071,0.2159,0.2207,0.2253,0.2287,0.2334,0.2369,0.2428,0.2483,0.2526,0.2594,0.2644,0.2669,0.2679,0.273,0.2726,0.2723,0.2727,0.2755,0.2754,0.2753,0.2763,0.2763,0.2763,0,0,0.198,0.203,0.2067,0.2114,0.2186,0.2233,0.2241,0.2322,0.2353,0.241,0.2455,0.2497,0.2585,0.2631,0.2666,0.2677,0.2709,0.2692,0.2676,0.2702,0.2701,0.2701,0.2705,0.2705,0.2694,0.2694,0.2694,0,0.195,0.2021,0.2081,0.2126,0.2163,0.2219,0.2257,0.23,0.2384,0.2408,0.2419,0.253,0.258,0.2641,0.2644,0.2671,0.2682,0.2683,0.2696,0.2697,0.2697,0.2702,0.2703,0.2691,0.2692,0.2692,0.2692,0,0.1981,0.203,0.2051,0.2132,0.2172,0.2212,0.2278,0.231,0.2345,0.2391,0.2447,0.2509,0.2574,0.2592,0.2626,0.2659,0.2663,0.2684,0.2701,0.2693,0.2698,0.27,0.2688,0.2689,0.269,0.269,0,0,0.1938,0.2052,0.2059,0.2096,0.218,0.2218,0.2261,0.2326,0.2352,0.2409,0.2447,0.2519,0.254,0.2579,0.2619,0.2642,0.2646,0.266,0.2663,0.2656,0.2686,0.2669,0.267,0.2668,0.2669,0.2669,0.268,0,0.1943,0.2024,0.2079,0.2138,0.2183,0.2237,0.2275,0.233,0.2374,0.2418,0.2466,0.2517,0.254,0.2564,0.2589,0.264,0.2653,0.264,0.2704,0.2705,0.2685,0.2673,0.2656,0.2664,0.2683,0.2683,0.2683,0,0.196,0.2015,0.2079,0.2158,0.2179,0.2211,0.2275,0.2317,0.2381,0.2411,0.2455,0.2496,0.2543,0.2556,0.2623,0.2613,0.2642,0.2671,0.2673,0.2681,0.2694,0.2681,0.2667,0.2668,0.2687,0.2687,0.2687,0,0.1922,0.2012,0.2062,0.2092,0.2186,0.2207,0.2247,0.2311,0.2346,0.2401,0.2425,0.2484,0.2517,0.2562,0.2618,0.2623,0.2679,0.2696,0.2705,0.2703,0.2714,0.2712,0.2705,0.2733,0.2732,0.2732,0.2732,0,0.1921,0.1958,0.2046,0.2077,0.2119,0.2182,0.2222,0.2266,0.2322,0.2362,0.2413,0.2449,0.252,0.2565,0.2609,0.2657,0.2671,0.2697,0.2708,0.2692,0.2689,0.2712,0.2713,0.2733,0.2733,0.2733,0.2733,0,0.1886,0.1946,0.2004,0.2088,0.211,0.2137,0.2209,0.224,0.2287,0.2336,0.2351,0.2424,0.2479,0.254,0.2615,0.2645,0.269,0.2706,0.2669,0.2675,0.268,0.2679,0.2687,0.2691,0.2715,0.2715,0.2715,0,0.1881,0.1911,0.1998,0.2029,0.2067,0.2116,0.2152,0.2215,0.2251,0.2325,0.2348,0.2407,0.2458,0.2543,0.2603,0.2661,0.2678,0.2677,0.2687,0.2671,0.2678,0.2676,0.2679,0.2674,0.2673,0.2673,0.2672,0,0.1867,0.1896,0.1947,0.2008,0.2051,0.2102,0.2155,0.2177,0.225,0.2288,0.2345,0.2384,0.2462,0.252,0.2585,0.2626,0.2661,0.2669,0.2674,0.2658,0.2635,0.2647,0.266,0.2668,0.2669,0.2669,0.2669,0.2669,0.1848,0.1876,0.1942,0.1997,0.2044,0.2092,0.2126,0.2177,0.2226,0.2294,0.2329,0.2386,0.2448,0.254,0.2579,0.2625,0.2636,0.2643,0.2645,0.2645,0.2641,0.2628,0.2637,0.2637,0.2637,0.2637,0.2638,0,0.1836,0.1881,0.1931,0.2004,0.2047,0.2078,0.2138,0.2172,0.2222,0.2278,0.2327,0.2393,0.2449,0.2513,0.2573,0.2597,0.2615,0.2611,0.261,0.2619,0.2628,0.2618,0.2596,0.2596,0.2596,0.2596,0.2596,0.2596,0.1835,0.1885,0.1922,0.1996,0.2041,0.2098,0.2129,0.2174,0.2219,0.2291,0.2338,0.238,0.2439,0.2504,0.2557,0.2575,0.2594,0.2585,0.2607,0.2615,0.2618,0.2621,0.2612,0.2589,0.2589,0.2595,0.2595,0.2595]},{"header":{"parameterUnit":"m.s-1","parameterCategory":1,"la1":30.2991,"la2":30.254,"lo1":-89.0895,"lo2":-89.0444,"dy":0.0017,"dx":0.0017,"nx":28,"ny":28,"refTime":"2025-03-21T21:00:00:Z","depth":0,"parameterNumber":3,"parameterNumberName":"V-component_of_WINDS"},"data":[0,0,0,0,0,0,0,0,0,0,0,0,0,0,0,0,0,0,0,0,0,0,0,0,0,0,0,0,0,0,0,0,0,0,0,0,0,0,0,0,0,0,0,0,0,0,0,0,0,0,0,0,0,0,0,0,0,0,3.9444,3.9444,0,3.9432,3.9432,3.9432,3.9383,3.9382,3.9381,3.938,3.9369,3.9369,3.937,0,0,0,0,0,0,0,0,0,0,0,0,0,3.9428,3.9429,3.9444,3.9444,3.9444,3.9432,3.9432,3.9432,3.9384,3.9382,3.9381,3.938,3.9368,3.9369,3.937,0,0,0,0,0,0,0,0,0,0,0,0,0,3.9427,3.9429,3.9444,3.9419,3.9416,3.9432,3.9432,3.9432,3.9384,3.9382,3.9381,3.9379,3.9368,3.9369,3.937,3.941,0,0,3.9373,3.9374,0,0,0,0,0,0,0,0,3.9428,3.9428,3.9423,3.942,3.9418,3.9407,3.9422,3.9424,3.9384,3.9396,3.938,3.9378,3.9383,3.9383,3.9384,3.941,3.9409,3.9374,3.9374,3.9375,3.9375,0,0,0,0,0,0,0,3.9428,3.9428,3.9439,3.9423,3.942,3.9408,3.9406,3.9422,3.9399,3.9395,3.9391,3.9391,3.9381,3.9383,3.9383,3.9409,3.9374,3.9375,3.9375,3.9376,3.9466,3.9468,0,0,0,0,0,0,3.9431,3.9429,3.944,3.9439,3.9419,3.941,3.9408,3.9412,3.9399,3.9395,3.9392,3.9388,3.9382,3.9382,3.9383,3.9428,3.9375,3.9376,3.9376,3.9465,3.9467,3.9469,0,0,0,0,0,0,3.9431,3.9433,3.944,3.9433,3.9433,3.9412,3.9418,3.9413,3.9415,3.9396,3.9392,3.9398,3.9381,3.9381,3.9404,3.9427,3.9376,3.9377,3.9463,3.9465,3.9468,3.952,0,0,0,0,0,0,3.9431,3.9433,3.9448,3.9434,3.9434,3.9461,3.9419,3.9414,3.9417,3.9412,3.9401,3.9398,3.9379,3.9402,3.9405,3.9428,3.9378,3.946,3.9464,3.9467,3.9516,3.9524,3.953,0,0,0,0,0,3.943,3.9463,3.9448,3.945,3.9451,3.9463,3.9463,3.9441,3.9419,3.9433,3.9422,3.9398,3.9424,3.9405,3.9407,3.9431,3.9459,3.9463,3.9467,3.9512,3.9522,3.953,0,0,0,0,0,0,3.9481,3.9461,3.9444,3.9473,3.947,3.9454,3.9472,3.9452,3.9455,3.945,3.9423,3.9421,3.9447,3.9442,3.942,3.9469,3.9438,3.9442,3.9471,3.9481,3.9488,3.9488,3.9379,0,0,0,0,0,3.9495,3.9505,3.9487,3.9515,3.9514,3.9494,3.9498,3.9481,3.9477,3.9475,3.9465,3.9462,3.9469,3.9475,3.9481,3.9515,3.9512,3.9532,3.954,3.9546,3.955,3.9567,3.9576,3.9482,3.9482,3.9482,0,0,3.9525,3.9515,3.9523,3.9525,3.952,3.9531,3.9493,3.9506,3.9515,3.9477,3.9497,3.949,3.9485,3.9513,3.9525,3.9509,3.9576,3.9551,3.9556,3.9557,3.9572,3.9581,3.9589,3.9484,3.9484,3.9483,0,0,3.9585,3.9579,3.9601,3.9597,3.959,3.9576,3.9582,3.9569,3.9563,3.9583,3.9555,3.9564,3.9578,3.9575,3.9576,3.9635,3.9614,3.9638,3.9677,3.9694,3.9701,3.9708,3.9728,3.9736,3.9643,3.9643,3.9643,0,3.9623,3.9639,3.9615,3.963,3.9631,3.9598,3.962,3.9617,3.9614,3.9615,3.9597,3.9614,3.9608,3.9635,3.9649,3.9651,3.9656,3.9639,3.9702,3.9708,3.9714,3.9733,3.9741,3.9646,3.9645,3.9645,3.9645,0,3.9685,3.9697,3.9715,3.9712,3.9715,3.9734,3.9713,3.972,3.9703,3.9692,3.9712,3.9704,3.9708,3.9713,3.9698,3.9738,3.9728,3.9707,3.9675,3.9726,3.9744,3.9751,3.965,3.9649,3.9648,3.9647,0,0,3.9776,3.9759,3.9766,3.9764,3.9754,3.9763,3.978,3.9783,3.9789,3.9788,3.9802,3.9814,3.9794,3.9795,3.9779,3.9794,3.9841,3.977,3.977,3.9783,3.9885,3.99,3.9909,3.9827,3.9828,3.9829,3.9885,0,3.9832,3.986,3.984,3.9871,3.9881,3.985,3.9865,3.9861,3.9851,3.9858,3.9847,3.9856,3.983,3.983,3.9844,3.9832,3.9861,3.9828,3.9839,3.984,3.984,3.9918,3.9935,3.9987,3.9892,3.9893,3.9894,0,3.9902,3.9903,3.9935,3.9923,3.9927,3.9941,3.9942,3.9949,3.9945,3.9936,3.9937,3.9917,3.9933,3.9903,3.9925,3.9904,3.9907,3.9902,3.9904,3.9903,3.9869,3.9919,4.0004,4.0011,3.9904,3.9904,3.9903,0,3.9964,3.9973,3.9994,3.9993,3.998,3.999,3.9986,3.9979,3.9982,3.9983,3.9985,3.9989,3.999,3.9994,3.9975,3.9955,4.0,3.9968,3.9993,3.9994,4.0003,4.0003,4.0089,4.0008,4.0008,4.0007,4.0007,0,4.0028,4.0049,4.0021,4.0034,4.0057,4.0033,4.0056,4.0048,4.0043,4.0053,4.0027,4.0038,4.0013,4.0022,4.0007,4.0028,4.0029,4.0023,4.0019,4.0024,4.0025,4.0026,4.0021,4.001,4.0009,4.0009,4.0008,0,4.0101,4.0083,4.0103,4.0089,4.0086,4.0103,4.0091,4.0102,4.0091,4.0105,4.0106,4.0088,4.0097,4.0079,4.0085,4.0076,4.0104,4.0095,4.0106,4.0102,4.0128,4.0126,4.0217,4.0228,4.0141,4.0141,4.0142,0,4.0142,4.0158,4.0145,4.015,4.0146,4.0155,4.0158,4.0136,4.014,4.0135,4.0147,4.0153,4.0157,4.0172,4.016,4.0164,4.0154,4.0186,4.0155,4.016,4.0154,4.0152,4.0154,4.0192,4.0193,4.0194,4.0195,0,4.0218,4.0209,4.0214,4.0216,4.022,4.022,4.0219,4.0225,4.0201,4.0207,4.0215,4.0218,4.0224,4.0231,4.0233,4.0228,4.0207,4.0205,4.0211,4.0216,4.0221,4.0218,4.0122,4.0202,4.0202,4.0201,4.0201,4.02,4.0276,4.0288,4.0281,4.0287,4.0284,4.0283,4.0293,4.0282,4.0288,4.0291,4.0278,4.0289,4.0284,4.0284,4.0282,4.029,4.0276,4.0285,4.0287,4.0289,4.0293,4.0221,4.029,4.029,4.029,4.029,4.029,0,4.035,4.0344,4.035,4.0349,4.0354,4.0334,4.0331,4.0337,4.0347,4.0344,4.0348,4.0357,4.0363,4.0351,4.0356,4.0365,4.0355,4.0367,4.0365,4.0364,4.0306,4.03,4.0374,4.0374,4.0374,4.0374,4.0374,4.0374,4.0389,4.0408,4.0397,4.0414,4.0408,4.0418,4.0418,4.0418,4.0415,4.0426,4.0431,4.0423,4.0417,4.042,4.0425,4.0422,4.0424,4.0438,4.0432,4.0377,4.0368,4.0361,4.0355,4.0439,4.0439,4.0489,4.049,4.049]}]]